Flag for U.S.A. Weather past 2 weeks in Oxnard, California, U.S.A.

Now
78 °F

Sunny.


Feels Like: 78 °F
Forecast: 58 / 75 °F
Wind: No wind

Location: Oxnard Airport

Current Time: Mar 27, 2015 at 10:52:10 AM

Latest Report: Mar 27, 2015 at 9:51 AM


Visibility: 10 mi

Pressure: 30.08 "Hg

Humidity: 24%

Dew point: 38 °F

Location of OxnardLocation

Historic Weather in Oxnard — Graph

°F

Oxnard temperature yesterday

Maximum temperature yesterday: 81 °F (at 10:51 AM)
Minimum temperature yesterday: 57 °F (at 3:51 AM)
Average temperature yesterday: 70 °F

Past Weeks' High & Low Weather Summary

 TemperatureHumidityPressure
High91 °F (Mar 14, 11:51 AM)93% (Mar 21, 4:59 AM)30.19 "Hg (Mar 21, 4:59 AM)
Low53 °F (Mar 20, 6:03 AM)13% (Mar 14, 11:51 AM)29.88 "Hg (Mar 16, 6:51 PM)
Average66 °F62%30.03 "Hg
* Reported Mar 12 9:51 AM — Mar 27 9:51 AM, Oxnard, Weather by CustomWeather, © 2015

Note: Actual official high and low records may vary slightly from our data, if they occured in-between our weather recording intervals... More about our weather records

Advertising

Oxnard weather history for previous 24 hours

 ConditionsComfort  
Time TempWeatherWind HumidityBarometerVisibility
9:51 AM
Fri, Mar 27
78 °FSunny.No wind24%30.08 "Hg10 mi
8:51 AM73 °FSunny.9 mph28%30.06 "Hg10 mi
7:51 AM64 °FSunny.7 mph38%30.05 "Hg10 mi
6:51 AM55 °FClear.3 mph64%30.04 "Hg10 mi
5:51 AM57 °FClear.3 mph64%30.03 "Hg10 mi
4:51 AM59 °FClear.No wind58%30.02 "Hg10 mi
3:51 AM59 °FClear.No wind56%30.02 "Hg10 mi
2:51 AM61 °FClear.No wind50%30.03 "Hg10 mi
1:51 AM60 °FClear.5 mph67%30.03 "Hg10 mi
12:51 AM62 °FClear.6 mph58%30.03 "Hg10 mi
11:51 PM
Thu, Mar 26
63 °FClear.7 mph63%30.03 "Hg10 mi
10:51 PM64 °FClear.6 mph63%30.04 "Hg10 mi
9:51 PM65 °FClear.3 mph68%30.04 "Hg10 mi
8:51 PM65 °FClear.No wind70%30.04 "Hg10 mi
7:51 PM67 °FSunny.6 mph63%30.02 "Hg10 mi
6:51 PM69 °FSunny.9 mph61%30.01 "Hg10 mi
5:51 PM74 °FSunny.10 mph48%30.00 "Hg10 mi
4:51 PM79 °FSunny.12 mph27%30.01 "Hg10 mi
3:51 PM80 °FSunny.7 mph28%30.01 "Hg10 mi
2:51 PM79 °FSunny.8 mph31%30.02 "Hg10 mi
1:51 PM78 °FSunny.6 mph36%30.05 "Hg10 mi
12:51 PM77 °FSunny.N/A36%30.07 "Hg10 mi
11:51 AM80 °FSunny.8 mph30%30.08 "Hg10 mi
10:51 AM81 °FSunny.6 mph29%30.08 "Hg10 mi
Weather by CustomWeather, © 2015

See weather overviewHow to use our weather pages